FW5667 Weather Reports


Display with metric or nautical units.
time (UTC)temp
F
wind
direction
speed
MPH
gust
MPH
rain 1hr
in
rain 24hr
in
rain mn
in
humidity
%
barometer
mb
20210727014555 82 344 9.0 15.0 0.00 0.00 0.00 46 1012.3
20210727014022 83 278 4.0 12.0 0.00 0.00 0.00 46 1012.3
20210727013522 83 29 6.0 14.0 0.00 0.00 0.00 47 1012.3
20210727013058 82 273 7.0 18.0 0.00 0.00 0.00 48 1012.2
20210727012524 82 290 7.0 18.0 0.00 0.00 0.00 47 1012.3
20210727012032 83 286 7.0 15.0 0.00 0.00 0.00 47 1012.1
20210727011557 83 18 6.0 21.0 0.00 0.00 0.00 47 1012.1
20210727011031 83 351 5.0 21.0 0.00 0.00 0.00 47 1012.2
20210727010529 83 317 9.0 18.0 0.00 0.00 0.00 47 1012.1
20210727010101 82 327 6.0 18.0 0.00 0.00 0.00 47 1012.1
20210727005523 82 349 10.0 21.0 0.00 0.00 0.00 47 1012.0
20210727005022 83 42 8.0 21.0 0.00 0.00 0.00 46 1011.9
20210727004556 83 276 8.0 18.0 0.00 0.00 0.00 46 1012.1
20210727004030 83 346 7.0 14.0 0.00 0.00 0.00 45 1012.2
20210727003527 83 10 8.0 14.0 0.00 0.00 0.00 46 1012.1
20210727003056 83 320 7.0 18.0 0.00 0.00 0.00 45 1012.1
20210727002525 83 349 9.0 18.0 0.00 0.00 0.00 45 1012.1
20210727002022 83 298 8.0 18.0 0.00 0.00 0.00 46 1012.0
20210727001657 83 342 12.0 18.0 0.00 0.00 0.00 45 1012.1
20210727001028 84 303 6.0 17.0 0.00 0.00 0.00 44 1012.1
20210727000527 84 342 5.0 19.0 0.00 0.00 0.00 45 1012.0
20210727000033 83 355 9.0 19.0 0.00 0.00 0.00 44 1012.1
20210726235536 84 346 6.0 16.0 0.00 0.00 0.00 44 1012.3
20210726235029 84 342 7.0 16.0 0.00 0.00 0.00 45 1012.2
20210726234628 84 335 8.0 16.0 0.00 0.00 0.00 45 1012.2
20210726234022 84 360 5.0 13.0 0.00 0.00 0.00 46 1012.2
20210726233553 84 310 4.0 13.0 0.00 0.00 0.00 46 1012.3
20210726233027 84 350 6.0 14.0 0.00 0.00 0.00 45 1012.2
20210726232529 84 13 6.0 14.0 0.00 0.00 0.00 45 1012.2
20210726232031 84 303 7.0 14.0 0.00 0.00 0.00 46 1012.3
20210726231619 84 327 7.0 15.0 0.00 0.00 0.00 45 1012.2
20210726231031 84 330 6.0 15.0 0.00 0.00 0.00 46 1012.3
20210726230522 84 360 9.0 14.0 0.00 0.00 0.00 45 1012.4
20210726230109 84 289 7.0 13.0 0.00 0.00 0.00 45 1012.6
20210726225526 85 312 5.0 13.0 0.00 0.00 0.00 45 1012.5
20210726225030 84 253 5.0 17.0 0.00 0.00 0.00 45 1012.4
20210726224550 84 349 8.0 17.0 0.00 0.00 0.00 45 1012.4
20210726224021 84 261 8.0 16.0 0.00 0.00 0.00 44 1012.3
20210726223533 84 347 6.0 16.0 0.00 0.00 0.00 44 1012.4
20210726223106 84 189 5.0 11.0 0.00 0.00 0.00 45 1012.7
20210726222532 84 279 4.0 13.0 0.00 0.00 0.00 47 1012.8
20210726222029 83 5 7.0 18.0 0.00 0.00 0.00 47 1012.9
20210726221528 82 23 8.0 19.0 0.00 0.00 0.00 48 1012.9
20210726221033 83 323 10.0 19.0 0.00 0.00 0.00 47 1012.9
20210726220556 83 312 6.0 15.0 0.00 0.00 0.00 47 1012.9
20210726220041 83 342 9.0 13.0 0.00 0.00 0.00 46 1013.1
20210726215534 83 336 7.0 14.0 0.00 0.00 0.00 47 1013.0
20210726215028 83 327 8.0 14.0 0.00 0.00 0.00 48 1013.0
20210726214622 82 244 8.0 15.0 0.00 0.00 0.00 49 1013.1
20210726214024 82 360 7.0 15.0 0.00 0.00 0.00 50 1013.2
20210726213524 81 355 8.0 17.0 0.00 0.00 0.00 50 1013.1
20210726213104 82 310 8.0 17.0 0.00 0.00 0.00 49 1013.2
20210726212533 82 25 5.0 17.0 0.00 0.00 0.00 50 1013.2
20210726212028 81 5 10.0 17.0 0.00 0.00 0.00 50 1013.4
20210726211541 81 324 5.0 12.0 0.00 0.00 0.00 50 1013.4
20210726211031 81 355 7.0 12.0 0.00 0.00 0.00 51 1013.5
20210726210529 81 335 5.0 11.0 0.00 0.00 0.00 52 1013.6
20210726210103 81 327 5.0 15.0 0.00 0.00 0.00 52 1013.4
20210726205522 81 0 6.0 15.0 0.00 0.00 0.00 51 1013.5
20210726205022 82 335 2.0 10.0 0.00 0.00 0.00 51 1013.4
20210726204610 81 256 3.0 10.0 0.00 0.00 0.00 52 1013.6
20210726204022 80 233 6.0 11.0 0.00 0.00 0.00 53 1013.7
20210726203539 80 294 3.0 14.0 0.00 0.00 0.00 55 1013.7
20210726203030 78 325 4.0 14.0 0.00 0.00 0.00 56 1013.9
20210726202522 79 282 3.0 12.0 0.00 0.00 0.00 55 1014.0
20210726202022 78 271 6.0 12.0 0.00 0.00 0.00 58 1013.9
20210726201545 78 284 3.0 11.0 0.00 0.00 0.00 57 1013.9
20210726201032 77 355 5.0 14.0 0.00 0.00 0.00 57 1013.9
20210726200531 76 355 5.0 16.0 0.00 0.00 0.00 59 1014.0
20210726200029 77 341 9.0 16.0 0.00 0.00 0.00 57 1014.0
20210726195546 76 355 6.0 11.0 0.00 0.00 0.00 58 1014.1
20210726195039 76 346 6.0 11.0 0.00 0.00 0.00 58 1014.0
20210726194629 76 21 3.0 13.0 0.00 0.00 0.00 60 1014.0
20210726194021 75 355 7.0 13.0 0.00 0.00 0.00 60 1014.1
20210726193522 75 240 7.0 12.0 0.00 0.00 0.00 59 1014.2
20210726193044 74 302 4.0 12.0 0.00 0.00 0.00 61 1014.1
20210726192523 74 216 5.0 12.0 0.00 0.00 0.00 61 1014.2
20210726192021 74 275 4.0 12.0 0.00 0.00 0.00 62 1014.2
20210726191614 74 14 4.0 13.0 0.00 0.00 0.00 62 1014.3
20210726191023 74 331 5.0 13.0 0.00 0.00 0.00 64 1014.2
20210726190524 73 304 4.0 13.0 0.00 0.00 0.00 65 1014.3
20210726190030 73 246 4.0 10.0 0.00 0.00 0.00 64 1014.3
20210726185522 72 36 2.0 8.0 0.00 0.00 0.00 65 1014.4
20210726185028 72 17 2.0 10.0 0.00 0.00 0.00 64 1014.5
20210726184620 72 276 4.0 10.0 0.00 0.00 0.00 66 1014.4
20210726184030 72 352 2.0 9.0 0.00 0.00 0.00 67 1014.5
20210726183523 69 28 5.0 11.0 0.00 0.00 0.00 70 1014.6
20210726183032 69 346 6.0 11.0 0.00 0.00 0.00 71 1014.5
20210726182522 68 348 5.0 11.0 0.00 0.00 0.00 71 1014.6
20210726182025 68 0 1.0 8.0 0.00 0.00 0.00 71 1014.8
20210726181548 68 24 4.0 11.0 0.00 0.00 0.00 71 1014.5
20210726181036 68 275 6.0 12.0 0.00 0.00 0.00 72 1014.8
20210726180538 67 346 6.0 12.0 0.00 0.00 0.00 72 1014.8
20210726180044 68 32 3.0 12.0 0.00 0.00 0.00 72 1014.8
20210726175533 68 11 3.0 11.0 0.00 0.00 0.00 72 1014.8
20210726175024 67 207 5.0 11.0 0.00 0.00 0.00 71 1014.7
20210726174544 68 242 3.0 10.0 0.00 0.00 0.00 73 1014.9
20210726174031 67 26 2.0 10.0 0.00 0.00 0.00 73 1015.0
20210726173535 65 234 3.0 10.0 0.00 0.00 0.00 75 1014.9
20210726173037 66 336 1.0 8.0 0.00 0.00 0.00 75 1015.0
20210726172526 65 252 2.0 10.0 0.00 0.00 0.00 76 1015.0
20210726172024 65 297 3.0 10.0 0.00 0.00 0.00 76 1015.0
20210726171548 65 348 4.0 12.0 0.00 0.00 0.00 76 1015.1
20210726171024 65 267 6.0 12.0 0.00 0.00 0.00 76 1015.3
20210726170537 65 273 5.0 12.0 0.00 0.00 0.00 75 1015.2
20210726170051 64 302 3.0 12.0 0.00 0.00 0.00 77 1015.3
20210726165524 63 224 3.0 12.0 0.00 0.00 0.00 78 1015.3
20210726165025 63 226 4.0 12.0 0.00 0.00 0.00 78 1015.2
20210726164545 63 317 2.0 8.0 0.00 0.00 0.00 78 1015.2
20210726164025 63 343 2.0 8.0 0.00 0.00 0.00 79 1015.3
20210726163527 62 115 2.0 9.0 0.00 0.00 0.00 81 1015.3
20210726163048 62 316 2.0 9.0 0.00 0.00 0.00 81 1015.3
20210726162526 62 346 3.0 8.0 0.00 0.00 0.00 81 1015.4
20210726162025 61 228 2.0 5.0 0.00 0.00 0.00 82 1015.3
20210726161617 61 223 0.0 8.0 0.00 0.00 0.00 82 1015.4
20210726161029 61 43 2.0 9.0 0.00 0.00 0.00 82 1015.4
20210726160525 61 355 2.0 9.0 0.00 0.00 0.00 82 1015.3
20210726160057 62 315 3.0 9.0 0.00 0.00 0.00 81 1015.3
20210726155526 61 67 1.0 8.0 0.00 0.00 0.00 80 1015.2
20210726155043 61 30 2.0 8.0 0.00 0.00 0.00 81 1015.1
20210726154620 61 290 2.0 8.0 0.00 0.00 0.00 81 1015.2
20210726154040 61 300 4.0 8.0 0.00 0.00 0.00 81 1015.2
20210726153524 61 325 4.0 8.0 0.00 0.00 0.00 82 1015.2
20210726153038 60 273 2.0 8.0 0.00 0.00 0.00 82 1015.2
20210726152525 60 41 3.0 9.0 0.00 0.00 0.00 82 1015.4
20210726152026 60 43 3.0 12.0 0.00 0.00 0.00 84 1015.5
20210726151544 59 280 6.0 12.0 0.00 0.00 0.00 84 1015.3
20210726151038 59 189 6.0 11.0 0.00 0.00 0.00 83 1015.5
20210726150529 60 355 2.0 9.0 0.00 0.00 0.00 83 1015.4
20210726150109 60 302 2.0 12.0 0.00 0.00 0.00 84 1015.5
20210726145524 59 360 4.0 12.0 0.00 0.00 0.00 83 1015.4
20210726145024 59 242 2.0 12.0 0.00 0.00 0.00 84 1015.5
20210726144545 59 270 4.0 12.0 0.00 0.00 0.00 84 1015.5
20210726144032 59 300 2.0 7.0 0.00 0.00 0.00 84 1015.4
20210726143531 58 0 2.0 6.0 0.00 0.00 0.00 85 1015.5
20210726143049 58 249 1.0 11.0 0.00 0.00 0.00 86 1015.3
20210726142525 58 300 3.0 11.0 0.00 0.00 0.00 85 1015.3
20210726142026 58 265 4.0 10.0 0.00 0.00 0.00 86 1015.3
20210726141637 58 265 3.0 8.0 0.00 0.00 0.00 85 1015.2
20210726141026 58 262 3.0 8.0 0.00 0.00 0.00 85 1015.2
20210726140533 57 298 0.0 5.0 0.00 0.00 0.00 87 1015.1
20210726140030 57 282 1.0 7.0 0.00 0.00 0.00 87 1015.0
20210726135524 57 309 3.0 7.0 0.00 0.00 0.00 87 1015.1
20210726135023 57 283 1.0 7.0 0.00 0.00 0.00 87 1015.0
20210726134610 57 232 2.0 9.0 0.00 0.00 0.00 87 1015.0
20210726134052 57 255 4.0 9.0 0.00 0.00 0.00 87 1014.9
20210726133541 57 252 2.0 7.0 0.00 0.00 0.00 87 1015.0
20210726133121 57 0 2.0 7.0 0.00 0.00 0.00 87 1014.9
20210726132533 57 234 0.0 7.0 0.00 0.00 0.00 87 1015.0
20210726132024 57 0 1.0 6.0 0.00 0.00 0.00 86 1015.1
20210726131600 57 246 1.0 5.0 0.00 0.00 0.00 86 1014.9
20210726131025 57 0 1.0 5.0 0.00 0.00 0.00 86 1015.2
20210726130526 57 328 3.0 10.0 0.00 0.00 0.00 85 1015.1
20210726130113 58 330 3.0 10.0 0.00 0.00 0.00 85 1015.2
20210726125533 58 327 3.0 10.0 0.00 0.00 0.00 85 1015.0
20210726125031 58 61 4.0 10.0 0.00 0.00 0.00 84 1014.9
20210726124547 58 288 3.0 8.0 0.00 0.00 0.00 84 1015.0
20210726124026 58 0 1.0 7.0 0.00 0.00 0.00 83 1015.1
20210726123536 58 329 1.0 7.0 0.00 0.00 0.00 84 1015.1
20210726123029 58 234 1.0 6.0 0.00 0.00 0.00 84 1015.1
20210726122525 58 0 1.0 6.0 0.00 0.00 0.00 84 1015.0
20210726122052 58 161 2.0 5.0 0.00 0.00 0.00 84 1014.9
20210726121551 58 0 0.0 3.0 0.00 0.00 0.00 84 1014.9
20210726121028 58 0 0.0 4.0 0.00 0.00 0.00 82 1015.0
20210726120542 59 0 0.0 4.0 0.00 0.00 0.00 82 1015.0
20210726120052 59 0 0.0 4.0 0.00 0.00 0.00 82 1015.0
20210726115533 59 15 2.0 5.0 0.00 0.00 0.00 81 1014.9
20210726115029 59 273 2.0 7.0 0.00 0.00 0.00 81 1015.0
20210726114614 59 281 2.0 7.0 0.00 0.00 0.00 81 1014.8
20210726114028 59 284 1.0 8.0 0.00 0.00 0.00 80 1014.9
20210726113526 59 277 3.0 8.0 0.00 0.00 0.00 81 1014.8
20210726113114 59 133 1.0 4.0 0.00 0.00 0.00 81 1014.9
20210726112532 59 0 1.0 4.0 0.00 0.00 0.00 80 1014.9
20210726112030 60 0 1.0 4.0 0.00 0.00 0.00 79 1014.8
20210726111550 60 0 1.0 8.0 0.00 0.00 0.00 78 1014.8
20210726111025 60 71 3.0 9.0 0.00 0.00 0.00 78 1014.7
20210726110526 61 264 4.0 10.0 0.00 0.00 0.00 77 1014.7
20210726110143 61 271 3.0 11.0 0.00 0.00 0.00 77 1014.8
20210726105524 61 198 3.0 11.0 0.00 0.00 0.00 76 1014.9
20210726105029 61 308 4.0 9.0 0.00 0.00 0.00 76 1014.8
20210726104613 61 272 3.0 10.0 0.00 0.00 0.00 76 1014.9
20210726104035 61 249 4.0 10.0 0.00 0.00 0.00 76 1014.8
20210726103535 61 300 3.0 10.0 0.00 0.00 0.00 76 1014.9
20210726103050 61 317 5.0 10.0 0.00 0.00 0.00 76 1014.7
20210726102526 61 246 0.0 8.0 0.00 0.00 0.00 76 1014.8
20210726102023 61 309 3.0 8.0 0.00 0.00 0.00 75 1014.9
20210726101716 61 290 4.0 8.0 0.00 0.00 0.00 75 1014.9
20210726101027 61 267 3.0 7.0 0.00 0.00 0.00 75 1014.8
20210726100525 61 305 1.0 9.0 0.00 0.00 0.00 75 1014.9
20210726100102 62 244 3.0 12.0 0.00 0.00 0.00 74 1014.9
20210726095524 62 297 6.0 12.0 0.00 0.00 0.00 74 1014.7
20210726095026 62 231 3.0 9.0 0.00 0.00 0.00 74 1014.8
20210726094542 62 317 2.0 10.0 0.00 0.00 0.00 73 1014.8
20210726094038 62 273 3.0 10.0 0.00 0.00 0.00 73 1014.9
20210726093522 62 271 1.0 7.0 0.00 0.00 0.00 73 1015.1
20210726093058 62 265 1.0 9.0 0.00 0.00 0.00 73 1015.0
20210726092531 63 292 3.0 9.0 0.00 0.00 0.00 72 1015.1
20210726092022 62 0 3.0 9.0 0.00 0.00 0.00 73 1015.0
20210726091548 62 284 3.0 8.0 0.00 0.00 0.00 73 1015.0
20210726091025 62 274 4.0 7.0 0.00 0.00 0.00 73 1015.2
20210726090526 63 337 2.0 7.0 0.00 0.00 0.00 73 1015.1
20210726090037 63 277 1.0 7.0 0.00 0.00 0.00 72 1015.1
20210726085526 63 274 2.0 8.0 0.00 0.00 0.00 72 1015.2
20210726085025 63 0 3.0 8.0 0.00 0.00 0.00 72 1015.2
20210726084556 63 327 3.0 8.0 0.00 0.00 0.00 72 1015.2
20210726084028 63 352 2.0 9.0 0.00 0.00 0.00 72 1015.2
20210726083523 63 348 2.0 9.0 0.00 0.00 0.00 72 1015.2
20210726083056 63 355 3.0 8.0 0.00 0.00 0.00 71 1015.4
20210726082531 63 340 2.0 8.0 0.00 0.00 0.00 71 1015.3
20210726082026 63 309 1.0 4.0 0.00 0.00 0.00 71 1015.4
20210726081611 63 352 0.0 4.0 0.00 0.00 0.00 71 1015.3
20210726081023 63 321 2.0 4.0 0.00 0.00 0.00 72 1015.3
20210726080522 63 0 1.0 3.0 0.00 0.00 0.00 74 1015.3
20210726080105 62 0 0.0 1.0 0.00 0.00 0.00 75 1015.3
20210726075535 63 0 0.0 2.0 0.00 0.00 0.00 74 1015.1
20210726075024 63 0 0.0 6.0 0.00 0.00 0.00 72 1015.2
20210726074606 65 0 1.0 6.0 0.00 0.00 0.00 69 1015.1
20210726074033 64 244 0.0 4.0 0.00 0.00 0.00 71 1015.1
20210726073523 65 311 2.0 8.0 0.00 0.00 0.00 69 1015.1
20210726073100 65 277 1.0 8.0 0.00 0.00 0.00 68 1015.2
20210726072523 66 299 3.0 8.0 0.00 0.00 0.00 68 1015.1
20210726072023 66 263 2.0 8.0 0.00 0.00 0.00 68 1015.0
20210726071607 66 257 1.0 8.0 0.00 0.00 0.00 68 1015.0
20210726071026 66 327 3.0 9.0 0.00 0.00 0.00 67 1015.0
20210726070523 66 249 4.0 9.0 0.00 0.00 0.00 68 1015.0
20210726070114 66 258 4.0 9.0 0.00 0.00 0.00 69 1015.0
20210726065522 65 286 3.0 7.0 0.00 0.00 0.00 70 1015.0
20210726065032 65 313 1.0 6.0 0.00 0.00 0.00 72 1014.9
20210726064559 64 258 3.0 6.0 0.00 0.00 0.00 73 1015.1
20210726064025 64 0 0.0 0.0 0.00 0.00 0.00 78 1015.0
20210726063531 65 0 0.0 1.0 0.00 0.00 0.00 73 1015.0
20210726063054 65 0 0.0 4.0 0.00 0.00 0.00 71 1015.0
20210726062526 66 0 1.0 5.0 0.00 0.00 0.00 69 1014.9
20210726062026 66 265 2.0 5.0 0.00 0.00 0.00 70 1014.8
20210726061543 66 0 1.0 4.0 0.00 0.00 0.00 69 1014.9
20210726061024 67 0 0.0 3.0 0.00 0.00 0.00 68 1014.9
20210726060556 67 252 1.0 3.0 0.00 0.00 0.00 67 1014.7
20210726060056 68 209 1.0 4.0 0.00 0.00 0.00 66 1014.8
20210726055524 68 0 2.0 6.0 0.00 0.00 0.00 65 1014.8
20210726055023 68 206 2.0 8.0 0.00 0.00 0.00 65 1014.6
20210726054550 69 0 1.0 8.0 0.00 0.00 0.00 63 1014.6
20210726054025 69 240 2.0 6.0 0.00 0.00 0.00 63 1014.6
20210726053525 69 283 1.0 8.0 0.00 0.00 0.00 62 1014.6
20210726053059 70 276 2.0 8.0 0.00 0.00 0.00 61 1014.4
20210726052523 70 303 2.0 5.0 0.00 0.00 0.00 61 1014.5
20210726052025 70 258 2.0 4.0 0.00 0.00 0.00 62 1014.3
20210726051533 69 327 0.0 7.0 0.00 0.00 0.00 64 1014.3
20210726051024 70 0 1.0 7.0 0.00 0.00 0.00 62 1014.2
20210726050522 70 278 2.0 6.0 0.00 0.00 0.00 62 1014.3
20210726050052 70 288 2.0 3.0 0.00 0.00 0.00 63 1014.3
20210726045525 70 0 0.0 4.0 0.00 0.00 0.00 63 1014.4
20210726045025 71 281 1.0 4.0 0.00 0.00 0.00 60 1014.5
20210726044651 71 301 1.0 5.0 0.00 0.00 0.00 61 1014.3
20210726044036 71 312 2.0 6.0 0.00 0.00 0.00 59 1014.3
20210726043525 72 76 1.0 7.0 0.00 0.00 0.00 58 1014.4
20210726043036 72 280 1.0 7.0 0.00 0.00 0.00 58 1014.2
20210726042525 73 0 1.0 9.0 0.00 0.00 0.00 57 1014.3
20210726042026 73 294 2.0 9.0 0.00 0.00 0.00 57 1014.4
20210726041559 73 311 2.0 7.0 0.00 0.00 0.00 57 1014.3
20210726041025 74 249 2.0 7.0 0.00 0.00 0.00 57 1014.4
20210726040532 74 0 1.0 8.0 0.00 0.00 0.00 57 1014.3
20210726040103 74 281 3.0 8.0 0.00 0.00 0.00 56 1014.2
20210726035522 75 332 1.0 6.0 0.00 0.00 0.00 56 1014.1
20210726035022 75 0 1.0 9.0 0.00 0.00 0.00 55 1014.1
20210726034545 76 301 4.0 9.0 0.00 0.00 0.00 55 1014.0
20210726034032 76 301 4.0 10.0 0.00 0.00 0.00 54 1013.9
20210726033535 76 302 5.0 10.0 0.00 0.00 0.00 54 1013.9
20210726033048 77 246 3.0 11.0 0.00 0.00 0.00 54 1013.9
20210726032536 77 275 4.0 11.0 0.00 0.00 0.00 53 1014.0
20210726032024 77 252 3.0 10.0 0.00 0.00 0.00 53 1013.9
20210726031550 78 261 4.0 11.0 0.00 0.00 0.00 52 1013.9
20210726031033 78 269 3.0 11.0 0.00 0.00 0.00 52 1013.9
20210726030525 79 270 6.0 9.0 0.00 0.00 0.00 51 1013.9
20210726030049 79 267 4.0 9.0 0.00 0.00 0.00 50 1013.8
20210726025536 79 296 3.0 9.0 0.00 0.00 0.00 49 1013.8
20210726025031 80 281 4.0 9.0 0.00 0.00 0.00 49 1013.7
20210726024528 80 323 3.0 8.0 0.00 0.00 0.00 48 1013.7
20210726024022 80 360 3.0 9.0 0.00 0.00 0.00 48 1013.6
20210726023541 81 323 5.0 11.0 0.00 0.00 0.00 47 1013.7
20210726023047 81 302 5.0 12.0 0.00 0.00 0.00 46 1013.7
20210726022525 81 311 4.0 12.0 0.00 0.00 0.00 45 1013.7
20210726022028 82 304 5.0 14.0 0.00 0.00 0.00 44 1013.7
20210726021550 82 278 3.0 14.0 0.00 0.00 0.00 44 1013.6
20210726021039 82 346 5.0 10.0 0.00 0.00 0.00 44 1013.6
20210726020525 82 325 4.0 12.0 0.00 0.00 0.00 43 1013.7
20210726020052 82 9 4.0 12.0 0.00 0.00 0.00 43 1013.8
20210726015538 83 314 5.0 13.0 0.00 0.00 0.00 42 1013.7
20210726015022 83 294 6.0 13.0 0.00 0.00 0.00 41 1013.9